Location: Antioch Baptist Church
(32.6696°N, 85.7327°W)
Time: 11:19:52
(UTC+00:00)

Okean 1 Rocket - Pass Details

Date: 14 July 2020
Orbit: 606 x 635 km, 82.5° (Epoch: 09 August)

Event Time Altitude Azimuth Distance (km) Brightness Sun altitude
Rises 09:59:25 0° 170° (S) 2,888 6.3 -9.3°
Reaches altitude 10° 10:01:43 10° 164° (SSE) 1,981 5.5 -8.9°
Maximum altitude 10:05:53 44° 92° (E) 861 4.3 -8.1°
Drops below altitude 10° 10:10:02 10° 21° (NNE) 1,976 6.5 -7.4°
Sets 10:12:19 0° 15° (NNE) 2,880 7.3 -7.0°
